This demonstration page uses our WeatherBlox Daily Observations layout. Learn more.

Left ArrowRight Arrow

39.92423, -83.80882

Hourly Observations for April 13, 2020

Temp ( °F °C ) Dew Point ( °F °C ) Humidity (%) Winds ( mph kmh ) Pressure ( in mb ) Visibility ( mi km ) Precip ( " mm )
12:56 am 00:56 Cloudy with Light Rain 55 12.8 55 12.8 100 100 SE 9 15 29.42 996 10 16.0934 0.001 0.001
1:56 am 01:56 Cloudy with Light Rain 56 13.3 56 13.3 100 100 S 8 13 29.39 995 7 11.26538 0.06 1.524
2:40 am 02:40 Cloudy with Rain 57 14 57 14 100 100 SSW 12 19 29.37 994 4 6.43736 0.09 2.286
2:54 am 02:54 Cloudy with Light Rain 57 14 57 14 100 100 S 8 13 29.35 994 4 6.43736 0.1 2.54
2:56 am 02:56 Cloudy with Light Rain 58 14.4 58 14.4 100 100 SSW 8 13 29.35 994 4 6.43736 0.11 2.794
3:18 am 03:18 Cloudy with Light Rain 57 14 57 14 100 100 SSW 8 13 29.34 993 2.5 4.02335 0.03 0.762
3:32 am 03:32 Cloudy with Rain 57 14 57 14 100 100 SSW 9 15 29.36 994 4 6.43736 0.06 1.524
3:56 am 03:56 Cloudy with Heavy Rain 57 13.9 57 13.9 100 100 SSW 14 22 29.36 994 6 9.65604 0.14 3.556
4:06 am 04:06 Mostly Cloudy with Nearby Thunderstorms 57 14 57 14 100 100 SSW 14 22 29.37 994 6 9.65604 0.04 1.016
4:17 am 04:17 Cloudy with Nearby Thunderstorms 57 14 57 14 100 100 SSW 13 20 29.37 994 7 11.26538 0.05 1.27
4:35 am 04:35 Cloudy with Light Rain 57 14 57 14 100 100 SW 15 24 29.37 994 6 9.65604 0.09 2.286
4:56 am 04:56 Cloudy with Light Rain 58 14.4 58 14.4 100 100 SW 10 17 29.36 994 10 16.0934 0.11 2.794
5:22 am 05:22 Cloudy with Light Rain 57 14 57 14 100 100 W 13 20 29.34 993 10 16.0934 0.02 0.508
5:40 am 05:40 Cloudy 57 14 57 14 100 100 W 9 15 29.33 993 10 16.0934 0.02 0.508
5:56 am 05:56 Cloudy 57 13.9 57 13.9 100 100 W 15 24 29.34 994 10 16.0934 0.02 0.508
6:56 am 06:56 Cloudy with Light Rain 56 13.3 56 13.3 100 100 W 15 24 29.36 994 10 16.0934 0.08 2.032
7:39 am 07:39 Cloudy with Light Rain 55 13 55 13 100 100 W 16 26 29.4 996 10 16.0934 0.001 0.001
7:56 am 07:56 Cloudy with Light Rain 55 12.8 55 12.8 100 100 W 16 26 29.41 996 10 16.0934 0.001 0.001
8:56 am 08:56 Cloudy 54 12.2 54 12.2 100 100 W 18 30 29.46 998 10 16.0934 0.001 0.001
9:52 am 09:52 Cloudy 46 8 46 8 100 100 WNW 23 37 29.55 1001 10 16.0934 0.001 0.001
9:56 am 09:56 Cloudy 47 8.3 47 8.3 100 100 WNW 31 50 29.54 1000 10 16.0934 0.001 0.001
10:46 am 10:46 Cloudy 43 6 43 6 100 100 W 25 41 29.66 1004 10 16.0934 0.001 0.001
10:56 am 10:56 Cloudy 42 5.6 42 5.6 100 100 W 32 52 29.65 1004 10 16.0934 0.001 0.001
11:56 am 11:56 Cloudy 41 5 38 3.3 89 89 W 25 41 29.75 1008 10 16.0934 0 0
12:26 pm 12:26 Cloudy 41 5 37 3 87 87 W 25 41 29.8 1009 10 16.0934 0 0
12:56 pm 12:56 Cloudy 40 4.4 35 1.7 83 83 WNW 29 46 29.82 1010 10 16.0934 0 0
1:56 pm 13:56 Cloudy 40 4.4 35 1.7 83 83 W 25 41 29.87 1011 10 16.0934 0 0
2:56 pm 14:56 Cloudy 40 4.4 34 1.1 79 79 W 21 33 29.92 1013 10 16.0934 0 0
3:56 pm 15:56 Cloudy 41 5 35 1.7 79 79 W 14 22 29.96 1015 10 16.0934 0 0
4:45 pm 16:45 Cloudy 43 6 36 2 76 76 W 17 28 30 1016 10 16.0934 0 0
4:56 pm 16:56 Cloudy 43 6.1 33 0.6 68 68 WNW 20 31 29.98 1015 10 16.0934 0 0
5:56 pm 17:56 Cloudy 43 6.1 33 0.6 68 68 WNW 16 26 30.01 1016 10 16.0934 0 0
6:56 pm 18:56 Mostly Cloudy 43 6.1 31 -0.6 63 63 WNW 15 24 30.06 1018 10 16.0934 0 0
7:56 pm 19:56 Cloudy 42 5.6 31 -0.6 65 65 WSW 15 24 30.07 1018 10 16.0934 0 0
8:56 pm 20:56 Cloudy 41 5 32 0 70 70 WSW 8 13 30.1 1019 10 16.0934 0 0
9:56 pm 21:56 Clear 39 3.9 31 -0.6 73 73 W 8 13 30.15 1021 10 16.0934 0 0
10:56 pm 22:56 Clear 39 3.9 30 -1.1 70 70 W 9 15 30.16 1022 10 16.0934 0 0
11:56 pm 23:56 Clear 39 3.9 28 -2.2 65 65 WNW 10 17 30.17 1022 10 16.0934 0 0

Powered by AerisWeather